This demonstration page uses our WeatherBlox Daily Observations layout. Learn more.

Left ArrowRight Arrow

39.51506, -84.39828

Hourly Observations for June 16, 2016

Temp ( °F °C ) Dew Point ( °F °C ) Humidity (%) Winds ( mph kmh ) Pressure ( in mb ) Visibility ( mi km ) Precip ( " mm )
12:15 am 00:15 Clear 69 20.8 64 17.7 83 83 N N/A 29.83 1010 10 16 N/A
12:35 am 00:35 Clear 69 20.8 64 17.8 83 83 SSW 5 7 29.83 1010 10 16 N/A
12:55 am 00:55 Clear 69 20.8 64 17.7 83 83 SSW 6 9 29.83 1010 10 16 N/A
1:15 am 01:15 Clear 69 20.8 64 17.6 82 82 SSW 7 11 29.83 1010 10 16 N/A
1:35 am 01:35 Clear 69 20.8 64 17.5 82 82 S 6 9 29.83 1010 10 16 N/A
1:55 am 01:55 Clear 69 20.8 64 17.5 82 82 S 6 9 29.83 1010 10 16 N/A
2:15 am 02:15 Clear 69 20.8 63 17.3 80 80 S 7 11 29.83 1010 10 16 N/A
2:35 am 02:35 Clear 69 20.8 63 17.3 80 80 S 5 7 29.83 1010 10 16 N/A
2:55 am 02:55 Clear 69 20.8 64 17.5 82 82 SSW 6 9 29.83 1010 10 16 N/A
3:15 am 03:15 Clear 69 20.8 64 17.5 82 82 S 6 9 29.83 1010 10 16 N/A
3:35 am 03:35 Clear 69 20.8 64 17.5 82 82 SSW 6 9 29.83 1010 10 16 N/A
3:55 am 03:55 Clear 69 20.8 64 17.7 83 83 S 5 7 29.83 1010 10 16 N/A
4:15 am 04:15 Clear 69 20.8 64 17.7 83 83 SSW 3 6 29.83 1010 10 16 N/A
4:35 am 04:35 Clear 67 19.5 61 16.3 82 82 SSW 3 6 29.80 1009 7 11 N/A
4:55 am 04:55 Clear 69 20.8 64 17.7 83 83 S 6 9 29.80 1009 7 11 N/A
5:15 am 05:15 Partly Cloudy 69 20.8 64 17.7 83 83 S 5 7 29.80 1009 7 11 N/A
5:35 am 05:35 Hazy 69 20.8 64 17.7 83 83 S 5 7 29.80 1009 5 8 N/A
5:55 am 05:55 Hazy 67 19.5 62 16.5 83 83 SSW 5 7 29.80 1009 4 6 N/A
6:15 am 06:15 Hazy 67 19.5 62 16.5 83 83 SSW 3 6 29.80 1009 4 6 N/A
6:35 am 06:35 Hazy 68 20.2 63 17.3 84 84 SSW 5 7 29.80 1009 3 5 N/A
6:55 am 06:55 Hazy 69 20.8 64 17.9 84 84 SSW 5 7 29.80 1009 5 8 N/A
7:15 am 07:15 Sunny 69 20.8 64 17.7 83 83 S 6 9 29.80 1009 7 11 N/A
7:35 am 07:35 Sunny 69 20.8 63 17.3 80 80 SSW 8 13 29.80 1009 10 16 N/A
7:55 am 07:55 Sunny 70 21 63 17.2 79 79 SSW 8 13 29.80 1009 10 16 N/A
8:15 am 08:15 Sunny 72 22.3 65 18.3 78 78 SSW 9 15 29.80 1009 10 16 N/A
8:35 am 08:35 Sunny 74 23.6 67 19.5 78 78 SSW 8 13 29.80 1009 10 16 N/A
8:55 am 08:55 Sunny 74 23.6 67 19.2 76 76 SSW 8 13 29.80 1009 10 16 N/A
9:15 am 09:15 Sunny 74 23.6 66 19 75 75 SSW 9 15 29.80 1009 10 16 N/A
9:35 am 09:35 Sunny 75 23.8 66 19 75 75 SSW 7 11 29.80 1009 10 16 N/A
9:55 am 09:55 Sunny 77 25.1 67 19.6 72 72 SSW 8 13 29.77 1008 10 16 N/A
10:15 am 10:15 Partly Cloudy 80 26.5 69 20.5 70 70 SW 7 11 29.74 1007 10 16 N/A
10:35 am 10:35 Partly Cloudy 81 27.2 68 20.1 65 65 W 10 17 29.74 1007 10 16 N/A
10:55 am 10:55 Sunny 81 27.2 67 19.7 64 64 WSW 14 22 29.74 1007 10 16 N/A
11:15 am 11:15 Partly Cloudy 82 28 67 19.7 61 61 W 13 20 29.74 1007 10 16 N/A
11:35 am 11:35 Sunny 83 28.1 67 19.6 60 60 WSW 13 20 29.74 1007 10 16 N/A
11:55 am 11:55 Sunny 83 28.6 66 18.7 55 55 WSW 12 19 29.74 1007 10 16 N/A
12:15 pm 12:15 Sunny 84 28.7 65 18.4 54 54 WSW 12 19 29.74 1007 10 16 N/A
12:35 pm 12:35 Sunny 86 29.8 65 18.5 51 51 WSW 15 24 29.74 1007 10 16 N/A
12:55 pm 12:55 Partly Cloudy 85 29.3 64 17.6 49 49 WSW 16 26 29.74 1007 10 16 N/A
1:15 pm 13:15 Partly Cloudy 86 30.1 64 17.8 48 48 W 10 17 29.71 1006 10 16 N/A
1:35 pm 13:35 Partly Cloudy 90 32.1 65 18.3 44 44 WNW 14 22 29.71 1006 10 16 N/A
1:55 pm 13:55 Partly Cloudy 85 29.7 59 14.9 41 41 W 14 22 29.71 1006 10 16 N/A
2:15 pm 14:15 Partly Cloudy 90 32.1 62 16.9 40 40 WNW 13 20 29.71 1006 10 16 N/A
2:35 pm 14:35 Partly Cloudy 88 31.3 62 16.6 41 41 WNW 10 17 29.71 1006 10 16 N/A
2:55 pm 14:55 Partly Cloudy 84 28.9 60 15.4 44 44 W 15 24 29.71 1006 10 16 N/A
3:15 pm 15:15 Mostly Cloudy 85 29.4 58 14.6 40 40 W 15 24 29.74 1007 10 16 N/A
3:35 pm 15:35 Mostly Cloudy 84 28.9 58 14.2 41 41 WNW 13 20 29.74 1007 10 16 N/A
3:55 pm 15:55 Partly Cloudy 85 29.3 57 14.1 39 39 W 18 30 29.74 1007 10 16 N/A
4:15 pm 16:15 Partly Cloudy 85 29.3 58 14.3 40 40 W 17 28 29.74 1007 10 16 N/A
4:35 pm 16:35 Mostly Cloudy 85 29.2 58 14.3 40 40 W 18 30 29.74 1007 10 16 N/A
4:55 pm 16:55 Partly Cloudy 84 29 57 13.8 39 39 W 14 22 29.74 1007 10 16 N/A
5:15 pm 17:15 Partly Cloudy 83 28.4 57 13.8 41 41 WNW 13 20 29.74 1007 10 16 N/A
5:35 pm 17:35 Mostly Cloudy 83 28.2 57 13.7 41 41 WNW 15 24 29.74 1007 10 16 N/A
5:55 pm 17:55 Mostly Cloudy 82 27.9 58 14.7 44 44 WNW 13 20 29.74 1007 10 16 N/A
6:15 pm 18:15 Partly Cloudy 82 28 58 14.3 43 43 WNW 15 24 29.74 1007 10 16 N/A
6:35 pm 18:35 Partly Cloudy 81 27.2 56 13.5 43 43 NW 13 20 29.74 1007 10 16 N/A
6:55 pm 18:55 Partly Cloudy 80 26.9 57 13.8 45 45 NW 14 22 29.74 1007 10 16 N/A
7:15 pm 19:15 Partly Cloudy 80 26.5 56 13.4 44 44 WNW 10 17 29.77 1008 10 16 N/A
7:35 pm 19:35 Mostly Cloudy 78 25.3 56 13.6 48 48 NW 10 17 29.80 1009 10 16 N/A
7:55 pm 19:55 Cloudy 77 25.1 56 13.5 49 49 WNW 8 13 29.80 1009 10 16 N/A
8:15 pm 20:15 Mostly Cloudy 77 25.1 57 14.1 51 51 NW 12 19 29.80 1009 10 16 N/A
8:35 pm 20:35 Mostly Cloudy 74 23.6 56 13.5 53 53 NNW 12 19 29.83 1010 10 16 N/A
8:55 pm 20:55 Partly Cloudy 74 23.6 57 14 55 55 NW 13 20 29.83 1010 10 16 N/A
9:15 pm 21:15 Clear 74 23.6 58 14.7 58 58 WNW 10 17 29.83 1010 10 16 N/A
9:35 pm 21:35 Partly Cloudy 72 22.1 58 14.4 62 62 NW 8 13 29.83 1010 10 16 N/A
9:55 pm 21:55 Mostly Cloudy 72 22.3 58 14.6 62 62 NW 6 9 29.83 1010 10 16 N/A
10:15 pm 22:15 Cloudy 72 22.1 58 14.7 63 63 WNW 8 13 29.83 1010 10 16 N/A
10:35 pm 22:35 Cloudy 72 22.2 59 15 64 64 WNW 6 9 29.83 1010 10 16 N/A
10:55 pm 22:55 Cloudy 72 22.3 59 15.1 64 64 NW 7 11 29.83 1010 10 16 N/A
11:15 pm 23:15 Cloudy 72 22 59 14.8 64 64 WNW 9 15 29.83 1010 10 16 N/A
11:35 pm 23:35 Cloudy 71 21.4 58 14.5 65 65 NNW 10 17 29.83 1010 10 16 N/A
11:55 pm 23:55 Cloudy 69 20.8 57 14 65 65 NW 6 9 29.83 1010 10 16 N/A

Powered by AerisWeather